Weather History for KEKQ - April, 2013

Change the Weather History Date:

Saturday, April 20, 2013

  Actual Average Record
Temperature  
Mean Temperature 44 °F -  
Max Temperature 57 °F 71 °F 86 °F (1971)
Min Temperature 30 °F 45 °F 23 °F (1983)
Degree Days  
Heating Degree Days 22    
Moisture  
Dew Point 31 °F    
Average Humidity 69    
Maximum Humidity 100    
Minimum Humidity 31    
Precipitation  
Precipitation 0.00 in - - ()
Sea Level Pressure  
Sea Level Pressure 30.28 in    
Wind  
Wind Speed 3 mph (NW)    
Max Wind Speed 12 mph    
Max Gust Speed 18 mph    
Visibility 10 miles    
Events      
Averages and records for this station are not official NWS values.
T = Trace of Precipitation, MM = Missing Value Source: NWS Daily Summary

Daily Weather History Graph

Daily Weather History Graph

Search for Another Location

Airport or City:

Trip Planner

Search our weather history database for the weather conditions in past years. The results will help you decide how hot, cold, wet, or windy it might be!

Date:

Astronomy

Apr. 20, 2013 Rise Set
Actual Time 5:58 AM CDT 7:18 PM CDT
Civil Twilight 5:31 AM CDT 7:45 PM CDT
Nautical Twilight 4:59 AM CDT 8:18 PM CDT
Astronomical Twilight 4:25 AM CDT 8:52 PM CDT
Moon 2:09 PM CDT (4/20) 2:39 AM CDT (4/20)
Length of Visible Light 14h 14m
Length of Day
13h 20m
Waxing Gibbous, 71% of the Moon is Illuminated
Apr 20
Waxing Gibbous
Apr 25
Full
May 2
Last Quarter
May 9
New
May 17
First Quarter

Hourly Weather History & Observations

Time (CDT) Temp. Windchill Dew Point Humidity Pressure Visibility Wind Dir Wind Speed Gust Speed Precip Events Conditions
12:56 AM 32.0 °F - 31.1 °F 96% 30.18 in 10.0 mi Calm Calm - N/A   Clear
1:56 AM 31.1 °F - 31.1 °F 100% 30.17 in 10.0 mi Calm Calm - N/A   Clear
2:56 AM 32.9 °F 29.8 °F 32.0 °F 96% 30.17 in 10.0 mi WSW 3.5 mph - N/A   Clear
3:56 AM 31.1 °F - 31.1 °F 100% 30.19 in 10.0 mi Calm Calm - N/A   Clear
4:56 AM 30.0 °F - 30.0 °F 100% 30.19 in 10.0 mi Calm Calm - N/A   Clear
5:56 AM 30.0 °F - 30.0 °F 100% 30.22 in 4.0 mi Calm Calm - N/A   Clear
6:56 AM 32.9 °F - 32.9 °F 100% 30.24 in 7.0 mi Calm Calm - N/A   Clear
7:56 AM 41.9 °F - 36.0 °F 79% 30.26 in 10.0 mi Calm Calm - N/A   Clear
8:56 AM 46.9 °F - 34.9 °F 63% 30.28 in 10.0 mi WNW 6.9 mph - N/A   Clear
9:56 AM 48.9 °F - 31.1 °F 50% 30.30 in 10.0 mi Variable 6.9 mph - N/A   Clear
10:56 AM 50.9 °F - 27.1 °F 40% 30.31 in 10.0 mi NNW 6.9 mph - N/A   Clear
11:56 AM 54.0 °F - 27.1 °F 36% 30.30 in 10.0 mi NW 11.5 mph - N/A   Clear
12:56 PM 54.9 °F - 28.0 °F 36% 30.29 in 10.0 mi NW 9.2 mph 18.4 mph N/A   Clear
1:56 PM 55.9 °F - 27.1 °F 33% 30.29 in 10.0 mi WNW 5.8 mph - N/A   Clear
2:56 PM 56.8 °F - 29.1 °F 35% 30.28 in 10.0 mi WNW 8.1 mph 17.3 mph N/A   Clear
3:56 PM 56.8 °F - 28.0 °F 33% 30.29 in 10.0 mi WNW 11.5 mph - N/A   Clear
4:56 PM 57.9 °F - 27.1 °F 31% 30.29 in 10.0 mi North 6.9 mph - N/A   Clear
5:56 PM 55.9 °F - 28.0 °F 34% 30.29 in 10.0 mi NNW 8.1 mph - N/A   Clear
6:56 PM 50.9 °F - 32.9 °F 50% 30.30 in 10.0 mi North 4.6 mph - N/A   Clear
7:56 PM 41.9 °F - 36.0 °F 79% 30.32 in 10.0 mi Calm Calm - N/A   Clear
8:56 PM 41.0 °F - 34.9 °F 79% 30.35 in 10.0 mi Calm Calm - N/A   Clear
9:56 PM 36.9 °F - 34.0 °F 89% 30.37 in 10.0 mi Calm Calm - N/A   Clear
10:56 PM 34.9 °F - 32.9 °F 92% 30.38 in 10.0 mi Calm Calm - N/A   Clear
11:56 PM 34.9 °F - 34.0 °F 97% 30.39 in 10.0 mi Calm Calm - N/A   Clear